This is the latest recevied weather packets stored in our database for station/object EA5JUX. If no packets are shown the sender has not sent any weather packets the latest 10 day(s).
| Time | Temp. | Humidity | Pressure | Rain* | Wind** | Luminosity | Snow |
|---|---|---|---|---|---|---|---|
| 1778158936 | 17.22° C | 82% | 1009.9 hPa | 0 mm | - | - | - |
| 1778158637 | 16.11° C | 84% | 1009.8 hPa | 0 mm | - | - | - |
| 1778158336 | 16.67° C | 86% | 1010 hPa | 1.02 mm | - | - | - |
| 1778158037 | 16.67° C | 87% | 1009.9 hPa | 1.78 mm | - | - | - |
| 1778157737 | 16.67° C | 87% | 1010.1 hPa | 1.78 mm | - | - | - |
| 1778157437 | 16.67° C | 88% | 1009.9 hPa | 1.78 mm | - | - | - |
| 1778157159 | 16.67° C | 88% | 1010 hPa | 1.78 mm | - | - | - |
| 1778156837 | 16.11° C | 88% | 1010.2 hPa | 1.78 mm | - | - | - |
| 1778156550 | 16.67° C | 88% | 1010.2 hPa | 1.78 mm | - | - | - |
| 1778156237 | 16.67° C | 88% | 1010.4 hPa | 1.78 mm | - | - | - |
| 1778155937 | 16.67° C | 88% | 1010.4 hPa | 1.78 mm | - | - | - |
| 1778155637 | 16.11° C | 87% | 1010.4 hPa | 1.78 mm | - | - | - |
| 1778155336 | 16.67° C | 86% | 1010.2 hPa | 1.78 mm | - | - | - |
| 1778155036 | 16.67° C | 84% | 1010.5 hPa | 1.52 mm | - | - | - |
| 1778154737 | 16.67° C | 81% | 1010.4 hPa | 0 mm | - | - | - |
| 1778154437 | 17.22° C | 78% | 1010.5 hPa | 0 mm | - | - | - |
| 1778154137 | 17.22° C | 76% | 1010.5 hPa | 0 mm | - | - | - |
| 1778153856 | 17.22° C | 76% | 1010.4 hPa | 0 mm | - | - | - |
| 1778153550 | 17.22° C | 76% | 1010.5 hPa | 0 mm | - | - | - |
| 1778153237 | 17.78° C | 76% | 1010.7 hPa | 0 mm | - | - | - |
| 1778152937 | 17.78° C | 75% | 1010.2 hPa | 0 mm | - | - | - |
| 1778152637 | 17.78° C | 77% | 1010.6 hPa | 0 mm | - | - | - |
| 1778152337 | 18.33° C | 77% | 1010.5 hPa | 0 mm | - | - | - |
| 1778152052 | 18.89° C | 75% | 1010.4 hPa | 0 mm | - | - | - |
| 1778151737 | 19.44° C | 72% | 1010.4 hPa | 0 mm | - | - | - |
* Rain latest hour (hover to see other rain measurements)
** Current wind speed in m/s (hover to see current wind gust speed)